Total_Precipitation_Accumulation
0.72 0.88 1.13 1.45 1.65 1.75 1.95 2.08 2.30 2.48 2.51 2.43 2.14 1.78 1.54 1.45 1.40 1.27 1.14 1.02 0.95 0.87 0.80 0.71 0.60 0.50 0.43 0.36 0.33 0.30 0.26 0.22 0.23 0.23 0.18 0.11 0.08 0.06 0.05 0.05 0.04 0.03 0.03
0.55 0.70 0.99 1.19 1.37 1.54 1.67 1.90 1.97 2.23 2.28 2.20 2.17 2.00 1.89 1.76 1.66 1.57 1.38 1.24 1.15 1.02 0.90 0.80 0.75 0.62 0.52 0.48 0.46 0.43 0.37 0.31 0.30 0.32 0.32 0.24 0.16 0.10 0.08 0.07 0.07 0.07 0.07
0.44 0.57 0.78 0.99 1.10 1.27 1.53 1.63 1.70 1.94 2.15 2.23 2.37 2.44 2.38 2.08 1.80 1.63 1.57 1.44 1.35 1.22 1.06 0.93 0.89 0.84 0.71 0.60 0.60 0.59 0.56 0.54 0.52 0.49 0.52 0.45 0.30 0.20 0.12 0.10 0.10 0.10 0.10
0.40 0.47 0.54 0.71 0.84 0.96 1.26 1.59 1.70 1.83 2.02 2.30 2.32 2.26 2.12 1.91 1.63 1.59 1.68 1.67 1.55 1.42 1.25 1.13 1.04 0.99 0.94 0.83 0.80 0.79 0.81 0.82 0.76 0.70 0.66 0.62 0.53 0.48 0.33 0.17 0.12 0.12 0.11
0.44 0.44 0.46 0.57 0.68 0.78 0.99 1.27 1.55 1.78 1.96 2.08 2.15 2.22 2.07 1.90 1.83 1.72 1.68 1.61 1.52 1.45 1.36 1.28 1.23 1.15 1.11 1.11 1.11 1.05 1.00 0.98 0.94 0.88 0.83 0.80 0.73 0.65 0.61 0.41 0.25 0.22 0.20
0.46 0.43 0.43 0.52 0.62 0.68 0.80 0.97 1.20 1.40 1.62 1.83 1.92 1.99 1.99 1.99 1.95 1.77 1.64 1.62 1.59 1.53 1.43 1.40 1.38 1.35 1.30 1.28 1.27 1.26 1.24 1.21 1.15 1.12 1.02 0.96 0.91 0.80 0.83 0.74 0.52 0.44 0.35
0.38 0.38 0.42 0.48 0.57 0.63 0.70 0.77 0.88 1.01 1.20 1.40 1.55 1.64 1.77 1.87 1.80 1.70 1.56 1.53 1.48 1.41 1.37 1.38 1.43 1.44 1.39 1.38 1.40 1.40 1.33 1.34 1.34 1.30 1.24 1.16 1.06 0.98 1.01 1.04 0.86 0.69 0.52
0.39 0.37 0.37 0.42 0.50 0.55 0.62 0.68 0.74 0.81 0.94 1.06 1.19 1.34 1.48 1.68 1.69 1.65 1.50 1.37 1.30 1.27 1.32 1.32 1.29 1.30 1.34 1.35 1.35 1.37 1.31 1.29 1.28 1.25 1.22 1.20 1.10 1.09 1.12 1.19 1.26 1.15 0.88
0.40 0.37 0.36 0.37 0.45 0.48 0.53 0.61 0.71 0.76 0.82 0.93 1.05 1.14 1.20 1.31 1.40 1.49 1.51 1.37 1.27 1.23 1.23 1.21 1.17 1.11 1.09 1.15 1.22 1.23 1.22 1.20 1.17 1.16 1.15 1.15 1.09 1.10 1.13 1.22 1.38 1.54 1.38
0.39 0.36 0.37 0.41 0.45 0.46 0.47 0.55 0.70 0.72 0.73 0.79 0.89 0.96 1.03 1.13 1.22 1.26 1.29 1.26 1.20 1.18 1.17 1.13 1.06 1.01 0.97 0.95 0.99 1.02 1.02 1.03 1.00 1.01 1.04 1.04 1.02 1.05 1.10 1.16 1.23 1.38 1.46
0.40 0.40 0.44 0.50 0.52 0.47 0.49 0.55 0.61 0.71 0.75 0.75 0.80 0.83 0.82 0.88 1.01 1.11 1.12 1.13 1.11 1.08 1.06 1.05 1.01 0.96 0.89 0.84 0.81 0.79 0.83 0.88 0.86 0.86 0.88 0.89 0.89 0.93 0.95 1.00 1.06 1.13 1.24
0.37 0.42 0.49 0.51 0.52 0.53 0.55 0.58 0.60 0.65 0.74 0.74 0.74 0.78 0.79 0.79 0.85 0.94 1.03 1.06 1.11 1.05 1.01 0.98 0.95 0.90 0.84 0.80 0.78 0.75 0.73 0.75 0.75 0.74 0.76 0.77 0.80 0.85 0.89 0.94 0.94 0.95 0.98
0.35 0.36 0.43 0.48 0.50 0.53 0.61 0.64 0.66 0.67 0.66 0.68 0.68 0.68 0.67 0.69 0.73 0.78 0.87 0.91 0.97 0.96 0.93 0.93 0.89 0.82 0.78 0.76 0.74 0.72 0.72 0.71 0.68 0.67 0.72 0.74 0.79 0.84 0.86 0.89 0.90 0.90 0.92
0.33 0.34 0.39 0.43 0.46 0.51 0.55 0.55 0.61 0.62 0.62 0.59 0.64 0.65 0.62 0.63 0.68 0.75 0.79 0.81 0.84 0.90 0.89 0.88 0.90 0.89 0.84 0.81 0.78 0.75 0.74 0.75 0.74 0.72 0.74 0.76 0.77 0.77 0.77 0.79 0.80 0.84 0.88
0.30 0.34 0.36 0.39 0.42 0.40 0.40 0.43 0.48 0.54 0.55 0.55 0.62 0.64 0.64 0.69 0.76 0.79 0.78 0.78 0.78 0.84 0.87 0.88 0.91 0.92 0.91 0.88 0.86 0.84 0.85 0.87 0.88 0.86 0.82 0.79 0.80 0.77 0.74 0.76 0.78 0.81 0.87
0.24 0.25 0.29 0.36 0.38 0.37 0.36 0.36 0.39 0.43 0.44 0.44 0.48 0.53 0.59 0.67 0.74 0.80 0.79 0.76 0.75 0.80 0.86 0.86 0.90 0.96 0.99 1.09 1.03 0.93 0.91 0.93 0.90 0.86 0.80 0.77 0.78 0.75 0.76 0.77 0.77 0.85 0.95
0.18 0.19 0.22 0.27 0.29 0.28 0.31 0.33 0.34 0.37 0.39 0.38 0.39 0.44 0.54 0.62 0.66 0.73 0.78 0.79 0.79 0.87 0.96 0.98 0.98 1.03 1.12 1.19 1.03 0.95 0.87 0.86 0.83 0.78 0.73 0.69 0.66 0.69 0.63 0.67 0.74 0.78 0.87
0.14 0.15 0.18 0.21 0.21 0.22 0.24 0.25 0.25 0.31 0.39 0.42 0.45 0.47 0.51 0.57 0.65 0.69 0.76 0.82 0.84 0.92 1.03 1.08 1.05 1.05 1.10 1.14 1.03 0.93 0.79 0.74 0.70 0.66 0.62 0.61 0.59 0.60 0.66 0.73 0.79 0.72 0.67
0.14 0.14 0.15 0.17 0.15 0.17 0.21 0.21 0.21 0.26 0.34 0.39 0.44 0.45 0.48 0.55 0.63 0.71 0.79 0.84 0.87 0.93 1.00 0.99 0.95 0.91 0.93 0.93 0.85 0.84 0.74 0.72 0.65 0.60 0.60 0.60 0.58 0.64 0.77 0.83 0.83 0.70 0.57
0.17 0.17 0.16 0.16 0.15 0.17 0.20 0.23 0.25 0.28 0.35 0.38 0.42 0.43 0.45 0.51 0.58 0.67 0.77 0.82 0.84 0.84 0.83 0.82 0.77 0.74 0.74 0.77 0.72 0.73 0.72 0.71 0.65 0.60 0.59 0.65 0.64 0.74 0.86 0.82 0.80 0.72 0.58
0.17 0.22 0.24 0.25 0.25 0.27 0.28 0.30 0.31 0.34 0.37 0.39 0.43 0.45 0.47 0.51 0.57 0.62 0.65 0.68 0.68 0.65 0.63 0.60 0.57 0.56 0.57 0.61 0.59 0.62 0.65 0.65 0.65 0.62 0.57 0.57 0.72 0.80 0.85 0.77 0.63 0.64 0.71
0.17 0.22 0.27 0.29 0.31 0.32 0.34 0.35 0.37 0.39 0.39 0.40 0.44 0.47 0.47 0.47 0.46 0.47 0.50 0.50 0.50 0.50 0.48 0.48 0.48 0.48 0.50 0.53 0.56 0.59 0.65 0.69 0.63 0.57 0.52 0.54 0.69 0.69 0.65 0.61 0.62 0.69 0.66
0.16 0.19 0.23 0.24 0.25 0.30 0.35 0.38 0.39 0.38 0.36 0.38 0.39 0.39 0.38 0.37 0.37 0.37 0.37 0.39 0.42 0.44 0.46 0.46 0.46 0.46 0.47 0.49 0.57 0.57 0.63 0.68 0.61 0.56 0.58 0.61 0.60 0.55 0.52 0.57 0.61 0.60 0.56
0.13 0.14 0.16 0.18 0.19 0.21 0.25 0.29 0.31 0.30 0.28 0.30 0.29 0.28 0.27 0.27 0.27 0.28 0.29 0.32 0.35 0.37 0.39 0.41 0.41 0.41 0.42 0.41 0.45 0.52 0.57 0.61 0.59 0.59 0.60 0.56 0.52 0.49 0.50 0.56 0.55 0.51 0.55
0.14 0.12 0.11 0.12 0.13 0.14 0.16 0.20 0.22 0.22 0.21 0.22 0.20 0.20 0.20 0.24 0.27 0.27 0.28 0.31 0.33 0.37 0.39 0.38 0.39 0.41 0.41 0.43 0.53 0.57 0.55 0.60 0.62 0.60 0.50 0.47 0.48 0.49 0.47 0.46 0.49 0.52 0.56
0.15 0.12 0.11 0.12 0.12 0.12 0.13 0.14 0.17 0.20 0.21 0.19 0.19 0.19 0.17 0.20 0.26 0.30 0.30 0.34 0.37 0.41 0.45 0.45 0.42 0.39 0.42 0.47 0.51 0.54 0.59 0.63 0.63 0.54 0.47 0.44 0.44 0.45 0.47 0.47 0.47 0.50 0.56